Location: Fort Wayne
(41.1310°N, 85.1290°W)
Time: 07:59:01
(UTC-04:00)

Cosmos 2219 Rocket - Visible Passes

Search period start: 19 April 2014 00:00
Search period end: 29 April 2014 00:00
Orbit: 827 x 848 km, 71.0° (Epoch: 19 April)

Date Brightness Start Highest point End Pass type
(mag) Time Alt. Az. Time Alt. Az. Time Alt. Az.
19 Apr 4.1 21:26:42 10° NW 21:31:29 29° WSW 21:36:13 10° SSW visible
20 Apr 4.0 21:10:23 10° NW 21:15:17 31° WSW 21:20:09 10° SSW visible
21 Apr 3.9 20:54:04 10° NW 20:59:05 34° WSW 21:04:03 10° SSW visible
